Date,TemperatureHighF,TemperatureAvgF,TemperatureLowF,DewpointHighF,DewpointAvgF,DewpointLowF,HumidityHigh,HumidityAvg,HumidityLow,PressureMaxIn,PressureMinIn,WindSpeedMaxMPH,WindSpeedAvgMPH,GustSpeedMaxMPH,PrecipitationSumIn
2013-1-5,38.8,34.8,31.5,35.6,31.7,29.3,92,88,83,30.32,30.28,2,0,2,0.00
2013-1-6,66.2,42.7,27.5,32.1,25.1,17.3,97,58,16,30.43,30.31,17,4,17,0.00
2013-1-7,59.5,39.4,21.4,35.3,28.4,18.4,89,67,35,30.34,30.10,14,3,14,0.00
2013-1-8,48.7,46.5,43.5,48.2,42.8,34.0,99,88,69,30.10,29.97,12,2,14,2.17
2013-1-9,56.3,53.3,46.6,55.9,52.9,46.3,99,98,97,30.12,29.94,25,5,25,1.32
2013-1-10,59.0,53.7,46.6,56.4,49.1,43.8,99,85,66,30.00,29.93,16,0,17,0.13
2013-1-11,66.7,50.2,42.4,58.1,46.7,42.2,99,89,57,29.96,29.84,0,0,0,0.00
2013-1-12,62.8,51.4,35.2,61.6,44.3,24.8,99,77,54,29.99,29.73,0,0,0,0.00
2013-1-13,50.4,35.2,27.1,24.4,19.3,14.3,65,53,28,30.29,30.00,0,0,0,0.00
2013-1-14,52.7,35.1,27.1,23.8,18.3,14.1,67,52,22,30.34,30.19,0,0,0,0.00
2013-1-15,39.7,33.5,27.0,29.0,23.5,16.0,87,67,54,30.26,30.17,0,0,0,0.00
2013-1-16,58.3,33.9,18.3,28.9,18.5,10.2,80,57,19,30.31,30.17,0,0,0,0.00
2013-1-17,70.2,42.4,28.8,35.2,28.7,22.0,83,62,17,30.51,30.27,13,1,13,0.21
2013-1-18,70.5,46.0,24.8,38.8,31.0,22.8,97,62,22,30.51,30.26,18,5,18,0.00
2013-1-19,71.6,52.2,36.0,43.7,39.1,31.9,91,64,32,30.26,30.12,18,5,18,0.00
2013-1-20,80.2,50.2,32.0,47.9,38.9,31.5,99,72,22,30.23,30.08,11,2,12,0.00
2013-1-21,67.6,46.4,34.7,37.3,31.2,25.1,99,62,23,30.32,30.13,16,4,16,0.00
2013-1-22,75.7,51.4,32.7,46.4,37.9,26.4,86,62,34,30.33,30.16,16,4,16,0.00
2013-1-23,80.6,60.9,45.5,54.6,50.5,44.6,98,72,38,30.28,30.13,18,6,18,0.00
2013-1-24,91.9,64.4,48.4,61.3,50.3,41.8,99,67,23,30.19,30.03,15,4,15,0.00
2013-1-25,51.1,45.7,41.7,44.5,40.4,37.6,91,82,71,30.22,30.06,13,4,13,0.00
2013-1-26,60.4,48.9,36.5,50.8,43.2,34.3,99,82,54,30.22,30.08,12,4,12,0.00
2013-1-27,77.4,63.4,51.1,61.7,56.7,50.8,99,81,51,30.08,29.91,29,10,29,0.00
2013-1-28,80.8,70.6,63.9,64.7,62.7,60.6,95,77,53,30.00,29.84,29,12,29,0.00
2013-1-29,79.7,69.5,56.1,65.3,62.1,48.0,94,78,45,29.85,29.48,34,13,34,0.25
2013-1-30,57.2,46.0,31.8,33.6,21.6,12.5,71,41,19,30.16,29.73,34,4,34,0.22
2013-1-31,72.0,48.3,27.7,32.8,23.7,14.4,84,47,11,30.31,30.09,2,0,2,0.00
2013-2-1,64.4,40.9,29.3,32.5,24.6,17.2,62,53,27,30.40,30.25,2,0,2,0.00
2013-2-5,74.3,59.5,51.6,57.9,54.7,49.4,98,86,56,30.02,29.88,1,0,1,0.00
2013-2-6,80.2,64.9,58.5,60.8,57.8,55.2,98,80,46,30.00,29.84,1,0,1,0.00
2013-2-7,80.2,64.3,51.1,58.3,51.2,39.4,87,66,25,30.15,29.85,2,0,2,0.00
2013-2-8,68.9,52.3,39.2,39.8,28.6,16.4,80,47,14,30.27,30.10,5,0,5,0.00
2013-2-9,59.2,52.2,45.5,58.9,49.1,34.0,99,90,63,30.12,29.73,0,0,0,0.00
2013-2-10,70.7,56.7,42.8,62.8,38.6,19.1,99,60,14,30.02,29.65,0,0,0,0.00
2013-2-11,61.7,50.6,43.2,42.6,38.4,31.5,85,64,36,30.14,30.00,8,3,8,0.64
2013-2-12,51.4,47.2,40.6,49.8,43.9,35.9,99,89,75,30.09,29.86,21,5,21,0.13
2013-2-13,64.4,47.0,34.7,40.5,34.2,24.8,90,64,26,30.16,30.02,21,4,21,0.01
2013-2-14,75.2,57.4,35.4,41.8,32.5,18.9,94,46,13,30.09,29.97,102,4,102,0.00
2013-2-15,54.3,46.3,32.0,38.1,27.5,14.2,67,50,24,30.40,30.07,27,10,102,0.00
2013-2-16,64.9,43.5,24.6,32.6,25.8,17.8,83,54,22,30.42,30.16,11,3,11,0.00
2013-2-17,75.0,56.7,39.6,45.7,31.1,17.0,74,45,12,30.16,29.88,29,11,29,0.00
2013-2-18,79.3,61.9,43.9,54.8,41.9,24.7,76,52,15,30.16,29.79,29,12,29,0.00
2013-2-19,65.3,52.2,38.3,37.6,25.7,14.1,68,40,16,30.19,29.79,15,6,15,0.02
2013-2-20,50.0,45.7,43.5,41.0,38.2,35.8,89,75,58,29.81,29.41,20,9,20,0.12
2013-2-21,70.7,53.8,42.1,51.1,37.8,16.8,99,65,13,29.60,29.24,24,8,27,0.13
2013-2-22,55.0,39.6,28.8,35.1,25.7,19.7,78,59,34,29.83,29.59,17,6,17,0.00
2013-2-23,63.7,44.0,27.1,33.1,28.6,20.7,85,58,28,29.77,29.58,13,3,13,0.00
2013-2-24,73.0,54.1,34.2,46.2,39.1,28.1,85,60,34,29.59,29.25,24,9,24,0.00
2013-2-25,59.0,49.3,38.7,50.2,38.5,28.6,81,67,38,29.43,29.20,34,12,34,0.12
2013-2-26,63.9,46.4,35.8,34.1,30.0,25.3,76,56,25,29.59,29.43,22,6,22,0.00
2013-2-27,60.3,46.1,35.4,32.7,26.1,12.4,79,51,19,29.92,29.54,25,8,25,0.00
2013-2-28,62.2,45.1,29.3,32.4,24.7,16.3,81,50,19,29.99,29.85,22,6,22,0.00
2013-3-1,62.4,42.8,26.2,32.5,25.8,18.9,87,55,21,29.98,29.83,33,4,33,0.00
2013-3-2,62.8,44.0,28.0,29.6,25.6,20.2,83,53,22,30.11,29.89,17,5,17,0.00
2013-3-3,79.7,58.0,37.2,37.6,29.0,21.5,67,39,12,29.90,29.44,27,11,30,0.00
2013-3-4,90.0,70.5,55.2,43.3,33.4,16.8,56,30,11,29.52,29.28,27,9,29,0.00
2013-3-5,60.8,49.8,33.3,41.1,20.7,3.6,64,35,11,30.05,29.51,36,13,36,0.09
2013-3-6,66.2,45.4,24.4,28.8,19.5,6.4,75,40,15,30.12,29.85,13,4,13,0.00
2013-3-7,75.0,56.3,39.0,44.2,31.9,16.8,62,43,12,29.89,29.73,23,9,23,0.00
2013-3-8,61.2,58.4,55.0,58.3,52.8,43.8,92,82,62,29.83,29.62,21,12,21,0.00
2013-3-9,78.8,64.3,56.7,67.3,59.8,55.8,99,86,62,29.62,29.31,30,13,30,0.51
2013-3-10,57.2,50.5,36.5,56.8,37.7,28.7,99,64,38,29.77,29.41,31,9,31,1.48
2013-3-11,68.4,47.3,30.0,31.9,24.4,18.8,75,46,15,29.82,29.66,17,4,17,0.00
2013-3-12,73.2,54.2,41.2,36.8,31.3,28.4,65,46,21,29.84,29.70,21,8,21,0.00
2013-3-13,73.6,54.5,35.4,42.3,36.8,29.6,89,55,30,30.48,30.32,15,4,15,0.00
2013-3-14,81.3,60.1,47.1,47.9,41.9,38.9,77,55,24,30.37,30.20,21,8,21,0.00
2013-3-15,84.0,67.0,51.6,53.9,47.3,40.3,87,53,24,30.20,29.91,24,10,24,0.00
2013-3-16,87.3,71.3,55.8,57.9,51.9,43.4,78,52,34,29.91,29.69,25,13,25,0.00
2013-3-17,77.0,64.2,52.5,60.2,49.6,42.6,84,61,36,29.86,29.72,18,6,18,0.00
2013-3-18,75.2,62.1,52.3,57.9,48.4,41.9,96,64,38,30.03,29.68,24,7,24,0.00
2013-3-19,70.0,57.5,41.4,51.1,42.3,34.0,76,58,40,30.16,29.99,18,6,18,0.00
2013-3-20,73.9,58.5,44.6,41.1,31.7,19.9,71,40,14,30.34,30.06,17,6,17,0.00
2013-3-21,74.5,62.3,50.9,57.5,45.4,31.7,76,55,38,30.07,29.56,31,13,34,0.00
2013-3-22,64.4,52.9,48.0,57.4,47.9,35.6,97,83,41,30.12,29.59,22,7,22,0.06
2013-3-23,55.9,50.0,43.2,52.8,48.1,42.6,99,93,86,29.94,29.70,21,6,21,3.56
2013-3-24,56.1,44.9,36.5,48.8,27.8,15.4,92,54,26,30.22,29.88,30,11,30,0.07
2013-3-25,58.1,42.6,27.0,28.1,19.2,11.0,77,43,18,30.44,30.22,26,7,26,0.01
2013-3-26,64.2,45.0,24.3,31.6,24.1,16.3,84,48,21,30.52,30.30,13,4,13,0.00
2013-3-27,72.9,56.4,39.4,45.6,36.5,27.5,65,49,32,30.32,30.09,29,12,29,0.00
2013-3-28,73.8,61.5,50.4,59.5,52.3,44.8,90,72,56,30.23,30.09,23,10,23,0.00
2013-3-29,77.4,67.4,58.1,60.0,57.2,55.1,93,71,53,30.21,30.01,24,10,24,0.52
2013-3-30,82.0,67.9,55.6,65.0,60.1,52.5,99,78,52,30.15,29.89,36,7,36,1.35
2013-3-31,79.7,68.1,57.6,63.1,57.0,51.6,94,70,44,30.03,29.85,31,7,31,0.56
2013-4-1,85.3,66.6,47.7,60.0,52.8,47.3,99,66,34,30.11,29.94,14,4,14,1.49
2013-4-2,69.6,69.4,66.9,61.4,59.2,53.1,79,70,57,30.05,29.92,39,26,39,0.02
2013-4-3,69.6,69.6,69.6,59.8,59.8,59.8,71,71,71,30.12,29.88,28,28,32,0.02
2013-4-4,82.0,77.7,72.0,63.8,61.5,59.6,65,58,52,29.91,29.88,12,8,12,0.01
2013-4-10,49.8,42.5,36.0,41.5,37.3,34.1,96,82,69,30.03,29.94,21,9,22,1.44
2013-4-11,68.4,51.5,36.9,42.9,37.6,31.8,89,62,34,30.02,29.84,14,4,14,2.08
2013-4-12,82.6,60.8,39.7,53.9,45.4,37.9,95,62,30,30.01,29.87,14,4,16,1.05
2013-4-13,80.1,66.9,53.1,52.6,48.2,45.3,79,53,33,29.98,29.79,20,8,24,0.02
2013-4-14,93.4,71.8,55.0,66.1,57.5,38.7,88,64,15,29.81,29.54,22,10,22,0.07
2013-4-15,90.5,77.3,66.0,69.6,66.0,62.7,95,70,45,29.77,29.62,25,12,25,3.44
2013-4-16,89.6,77.5,68.9,69.5,66.1,63.0,87,69,50,29.90,29.77,23,13,24,2.54
2013-4-17,87.1,77.3,71.4,69.8,68.2,65.7,92,75,52,29.90,29.62,28,15,29,2.92
2013-4-18,77.2,55.0,43.2,71.0,44.9,34.1,97,70,44,30.19,29.58,30,13,30,1.24
2013-4-19,70.5,51.2,34.7,38.3,30.9,19.1,89,53,15,30.33,30.17,20,5,20,1.89
2013-4-20,73.4,57.8,41.0,42.0,34.2,24.5,78,46,18,30.22,30.01,26,10,26,0.22
2013-4-21,73.4,61.2,49.8,55.8,48.9,38.2,83,65,51,30.20,30.07,21,9,21,0.98
2013-4-22,84.2,68.2,53.1,61.8,55.4,48.6,93,66,45,30.12,29.83,27,10,27,3.99
2013-4-23,69.3,53.6,40.8,60.8,46.2,36.3,87,76,68,30.25,29.81,21,10,21,5.46
2013-4-24,65.1,48.5,34.9,37.6,33.3,27.1,86,59,32,30.35,30.23,22,9,22,1.50
2013-4-25,79.7,63.1,50.9,49.6,42.5,36.8,64,48,29,30.37,30.15,9,2,9,1.42
2013-4-26,79.7,67.5,58.5,69.0,59.5,46.6,95,76,58,30.18,29.99,6,1,6,5.33
2013-4-27,82.8,69.0,54.1,67.0,59.3,50.1,93,73,43,30.16,30.01,4,0,4,11.83
2013-4-28,54.0,53.2,52.5,50.6,50.3,49.7,92,90,88,30.06,30.05,0,0,0,0.00
2013-4-29,110.1,110.1,110.1,67.6,67.6,67.6,26,26,26,29.92,29.92,0,0,0,0.00
2013-4-30,70.3,69.8,69.1,62.4,61.4,60.3,76,75,71,29.84,29.81,0,0,0,0.00
2013-5-1,84.2,72.5,63.7,67.3,62.7,53.4,98,74,49,29.95,29.79,0,0,0,5.01
2013-5-5,75.0,67.0,55.8,48.0,45.9,44.6,67,47,37,30.12,29.84,14,4,14,0.01
2013-5-6,77.2,58.4,46.0,53.6,47.7,43.0,94,71,42,30.17,30.11,8,2,10,1.77
2013-5-7,85.6,72.8,54.0,59.5,52.5,48.1,91,53,29,30.11,29.93,14,4,17,0.02
2013-5-8,82.9,73.4,62.8,63.6,57.6,50.9,72,58,49,30.02,29.88,21,9,31,0.74
2013-5-9,75.0,69.7,66.4,66.4,62.6,57.2,94,79,57,30.06,29.86,21,7,27,5.40
2013-5-10,67.8,65.1,63.5,65.6,63.7,62.2,99,95,92,30.03,29.90,8,1,9,2.33
2013-5-11,63.1,61.6,60.1,61.1,59.3,57.7,94,92,90,30.11,30.08,0,0,0,0.49
2013-5-14,86.9,86.3,85.5,60.3,58.6,55.7,42,39,36,30.13,30.09,17,12,21,0.05
2013-5-15,81.1,74.3,68.7,71.0,66.7,62.2,92,77,66,30.07,29.73,23,12,31,0.48
2013-5-16,68.5,64.8,63.1,65.8,62.2,60.2,95,91,86,29.85,29.79,10,2,13,5.83
2013-5-17,80.1,80.1,80.1,72.6,72.6,72.6,78,78,78,29.87,29.87,0,0,0,0.00
2013-5-27,84.2,82.8,79.9,69.3,69.0,68.8,69,63,60,29.86,29.83,0,0,0,0.00
2013-6-6,69.6,69.6,69.6,67.5,67.5,67.5,93,93,93,29.92,29.92,0,0,0,0.00
2013-6-17,96.4,96.1,96.1,71.3,71.3,71.0,45,45,45,29.96,29.96,0,0,0,0.00
2013-8-24,99.3,91.5,86.9,70.6,68.5,66.9,55,47,36,30.02,29.97,14,6,14,0.00
2013-8-25,102.9,93.6,77.0,71.7,67.6,63.7,75,44,32,30.16,30.05,27,9,27,0.00
2013-8-26,96.6,86.1,75.9,71.8,67.6,63.1,77,56,37,30.18,30.05,22,9,22,0.00
2013-8-27,92.5,80.9,75.4,72.7,69.9,66.4,87,70,46,30.15,30.04,28,9,28,0.00
2013-8-28,99.7,86.8,72.3,74.1,66.9,62.1,91,56,31,30.14,30.00,17,5,17,0.00
2013-8-29,103.6,89.1,72.9,72.0,67.0,63.5,79,51,31,30.11,29.97,14,3,14,0.00
2013-8-30,106.3,90.9,73.2,71.3,64.2,44.5,80,46,14,30.04,29.88,13,4,13,0.00
2013-8-31,107.4,92.6,76.8,71.1,64.5,56.1,67,43,20,29.93,29.80,14,4,16,0.00
2013-9-1,107.8,92.7,79.0,71.7,67.3,62.1,68,46,24,29.91,29.78,24,6,24,0.00
2013-9-2,89.8,80.1,72.7,77.1,72.8,67.6,95,79,54,30.05,27.75,21,4,21,0.56
2013-9-3,99.7,87.0,74.7,74.4,69.5,61.4,92,60,30,30.03,29.91,14,4,14,0.00
2013-9-4,102.4,87.0,69.4,73.3,67.3,64.0,88,56,32,30.06,29.96,16,5,16,0.00
2013-9-5,100.6,89.6,76.8,73.6,68.6,63.7,79,52,32,30.12,30.00,16,5,16,0.00
2013-9-6,100.0,88.5,75.2,74.0,68.4,64.2,84,55,32,30.12,29.96,16,4,16,0.00
2013-9-7,99.5,88.5,77.5,73.7,67.7,62.5,78,53,31,30.06,29.92,26,6,26,0.00
2013-9-8,96.1,85.1,71.4,74.0,68.2,63.9,87,60,37,30.01,29.87,18,7,18,0.00
2013-9-9,95.0,84.9,72.9,73.0,67.8,63.5,86,59,39,30.03,29.91,27,8,27,0.00
2013-9-10,93.0,84.1,77.0,73.7,69.2,66.5,74,61,46,30.02,29.83,25,8,25,0.00
2013-9-11,96.4,84.4,70.9,73.6,66.8,62.2,87,58,36,29.97,29.82,19,6,19,0.00
2013-9-12,97.7,84.7,71.8,71.8,68.5,65.1,82,60,38,29.93,27.63,17,3,17,0.00
2013-9-13,98.1,85.9,72.0,73.6,67.2,64.0,86,56,34,29.82,29.67,50,4,50,0.00
2013-9-14,96.8,86.6,77.4,70.2,67.0,62.9,73,53,36,29.80,29.68,19,8,19,0.00
2013-9-15,95.7,86.5,76.8,72.4,67.7,63.6,76,55,38,29.87,29.77,17,7,17,0.00
2013-9-16,96.1,86.6,76.6,72.3,66.8,63.1,77,53,35,29.93,29.80,18,6,18,0.00
2013-9-17,92.8,84.4,76.5,70.1,66.5,63.5,72,56,40,29.92,29.77,12,4,15,0.00
2013-9-18,96.3,85.9,76.6,72.8,66.9,62.3,81,55,35,29.86,29.70,21,7,21,0.00
2013-9-19,90.7,81.2,70.9,73.3,69.9,64.7,95,70,50,30.56,29.71,32,6,32,0.01
2013-9-20,74.5,72.3,69.1,73.0,70.7,66.7,98,95,91,29.79,29.69,19,7,19,0.00
2013-9-21,84.2,71.8,59.7,66.7,56.2,47.1,94,63,31,29.85,29.71,23,7,23,0.00
2013-9-22,85.5,70.9,54.5,63.7,55.1,50.1,95,62,32,29.79,29.64,14,4,14,0.00
2013-9-23,87.3,73.0,57.4,60.1,56.2,54.1,92,59,34,29.71,29.58,17,6,17,0.00
2013-9-24,96.6,79.5,63.5,70.2,61.2,54.1,92,58,30,29.79,29.67,14,3,14,0.00
2013-9-25,97.9,78.9,58.3,65.6,60.6,55.4,92,58,29,29.75,29.60,13,4,13,0.00
2013-9-26,95.2,81.4,68.7,64.8,59.6,54.9,73,49,32,29.73,29.63,21,7,21,0.00
2013-9-27,87.6,80.1,71.2,73.5,69.9,59.6,87,71,61,29.77,29.66,21,10,21,0.00
2013-9-28,86.4,76.3,66.0,76.8,70.5,61.4,91,82,71,29.91,29.69,21,10,21,0.00
2013-9-29,84.4,71.7,60.8,62.1,56.0,46.6,87,61,31,29.92,29.77,17,5,17,0.00
2013-9-30,71.6,58.2,53.8,59.7,54.0,51.2,93,86,65,29.79,29.73,4,1,4,0.00
2013-10-1,87.6,81.2,73.2,72.1,65.1,62.1,80,59,44,29.75,29.69,20,8,20,0.00
2013-10-2,89.1,79.8,72.1,73.9,71.4,66.4,92,77,54,29.81,29.68,21,10,21,0.00
2013-10-3,91.2,82.1,73.2,74.8,70.9,66.1,95,71,46,29.76,29.62,24,12,24,0.00
2013-10-4,91.8,80.3,71.2,71.8,69.9,66.9,93,73,47,29.75,29.65,21,11,21,0.19
2013-10-18,49.8,49.8,49.6,48.2,48.0,47.6,94,93,92,29.93,29.92,20,10,20,2.09
2013-10-19,70.9,55.9,40.6,47.8,42.4,37.6,93,65,33,30.02,29.86,23,7,23,0.01
2013-10-20,71.6,57.8,41.2,51.8,46.1,39.9,98,68,43,29.86,29.64,23,8,23,0.14
2013-10-21,72.9,60.8,52.0,61.6,53.0,47.4,90,76,62,29.91,29.67,17,6,17,0.09
2013-10-22,79.2,61.2,42.4,53.5,46.9,14.1,96,65,28,29.97,29.82,13,3,13,0.48
2013-10-23,87.3,66.4,46.2,58.3,49.1,43.6,92,59,26,29.92,29.82,15,3,15,0.00
2013-10-24,85.6,67.8,49.5,57.2,49.6,42.9,86,56,26,30.04,29.86,15,4,15,0.00
2013-10-25,72.5,61.6,50.2,55.1,49.8,42.6,79,66,53,30.16,30.00,17,6,17,0.00
2013-10-26,79.9,66.2,58.3,65.3,59.4,52.2,94,79,60,30.01,29.79,24,9,24,0.09
2013-10-27,63.7,60.0,58.8,61.4,59.0,57.3,98,96,94,29.93,29.85,10,3,10,0.00
2013-10-28,72.0,71.7,71.4,67.0,66.4,66.2,86,83,82,29.81,29.79,14,10,14,0.00
2013-10-29,77.4,74.1,69.1,71.7,69.9,67.3,94,87,81,29.84,29.75,19,11,19,0.00
2013-10-30,75.4,71.6,67.1,73.7,69.6,66.8,99,93,85,29.79,29.57,24,10,24,0.01
2013-10-31,77.5,68.6,51.3,69.4,54.0,37.3,99,66,25,29.67,29.50,31,9,31,0.01
2013-11-1,80.4,61.6,46.8,52.6,46.2,37.3,98,63,25,29.90,29.60,18,5,18,0.00
2013-11-2,70.9,57.8,45.3,45.6,39.8,31.9,81,55,26,30.10,29.90,21,5,21,0.00
2013-11-3,45.1,42.9,41.2,41.2,39.5,38.4,93,88,81,30.00,28.43,10,2,10,0.00
2013-11-5,68.9,68.2,67.6,67.7,67.2,66.2,98,96,93,29.92,29.85,17,8,17,0.06
2013-11-6,69.4,54.9,41.2,68.6,47.4,37.3,98,78,45,30.31,29.90,27,9,27,0.30
2013-11-7,67.6,50.9,34.9,46.8,39.5,32.5,95,69,33,30.44,30.31,11,3,11,0.00
2013-11-8,67.5,54.3,39.6,50.3,41.7,31.8,95,66,30,30.33,30.05,21,6,21,0.00
2013-11-9,71.1,60.9,55.2,55.9,50.8,43.8,89,70,56,30.13,30.02,122,9,122,0.00
2013-11-10,67.5,57.4,50.4,56.4,52.1,47.8,94,83,66,30.26,30.13,11,4,11,0.00
2013-11-11,77.4,60.7,44.1,59.1,52.2,42.7,96,76,52,30.23,30.09,11,2,11,0.00
2013-11-12,57.6,48.3,32.7,55.4,34.1,15.7,94,62,26,30.62,30.22,25,9,25,0.00
2013-11-13,54.5,41.7,24.8,30.9,25.1,17.7,74,54,32,30.61,30.30,10,4,10,0.00
2013-11-14,60.3,47.2,31.5,44.6,32.2,25.2,85,59,27,30.30,29.93,21,8,21,0.00
2013-11-15,75.9,61.9,47.7,58.1,51.6,43.8,97,72,44,29.94,29.76,16,8,16,0.00
2013-11-16,81.9,69.4,59.7,66.7,61.6,56.9,96,78,51,29.80,29.60,29,12,29,0.00
2013-11-17,90.0,75.2,60.3,68.7,54.6,38.3,92,55,21,29.93,29.64,24,8,24,0.00
2013-11-18,64.4,60.1,55.6,38.3,32.3,29.2,39,35,32,30.07,29.93,21,7,24,0.00
2013-12-14,45.5,39.2,29.8,35.7,30.0,24.4,81,70,57,30.36,29.92,25,10,26,1.98
2013-12-15,64.2,44.4,24.1,38.6,29.0,19.1,85,59,26,30.37,30.23,11,3,11,0.00
2013-12-16,68.5,50.9,33.6,38.5,33.8,27.0,84,55,28,30.25,30.14,14,5,14,0.00
2013-12-17,72.0,51.9,31.1,44.4,35.2,27.7,89,58,24,30.32,30.20,11,2,11,0.00
2013-12-18,72.7,54.5,33.6,49.8,42.4,30.0,94,66,39,30.28,29.99,21,8,21,0.00
2013-12-19,74.3,62.9,53.6,58.7,55.2,49.5,93,77,56,30.00,29.76,35,15,35,0.00
2013-12-20,66.9,51.7,33.3,63.7,49.6,32.0,97,92,74,29.89,29.76,25,8,25,0.01
2013-12-21,59.9,44.0,34.0,53.8,41.3,32.7,99,91,56,29.84,29.59,18,4,18,1.41
2013-12-22,45.9,39.1,32.2,40.4,31.0,24.5,99,74,54,30.36,29.80,26,11,26,0.00